STARLINK-5728, 55588

Orbit data source: Space-Track

STARLINK-5728, 55588 is a payload satellite owned by SpaceX/Seattle (US) in LEO that was launched on Sun, 12 Feb 2023 UTC via an FALCON 9 launch vehicle from the Air Force Eastern Test Range (AFETR). Payload-class satellites include a variety of spacecraft equipped with specific instruments for various scientific and technological missions. These include communications satellites like Starlink; space stations such as the ISS; scientific satellites like the Hubble; Earth observation satellites from companies like Planet Labs, Umbra, and HawkEye 360; GPS; miniature CubeSats for education and research; and military/defense satellites.

Loading next visibility...
Identifier
55588, 2023-020V
Orbit
LEO
Country
Flag of USUS
Related business
Manufacturer
SpaceX/Seattle
Mission
Operational Commercial Communications
Bus & Motor
STARLINK, Unknown motor
Mass
305 kg wet, ~290 kg dry
Launch date (UTC)
2023-02-12 (3 years ago)
Launch vehicle
FALCON 9
Launch site
Air Force Eastern Test Range (AFETR)
Object type
Payload
Rocket body
Debris
Shape & HBR
Box + 1 Pan, 10.1 m
Radar Cross Section
13.562 m², Large (>1 m²)

Expand to show TLE details & history
Last TLE update: 14 hours ago

TLE from 14 hours ago
0 STARLINK-5728
1 55588U 23020V   25340.56795754 -.00000228  00000-0 -18452-5 0  9999
2 55588  43.0018 150.4408 0001218 262.9480  97.1224 15.02534608154913
Epoch: 2025-12-06T13:37Z
TLE epoch observation values (Epoch: 2025-12-06T13:37:51.531Z)
Latitude
-0.00001°
Longitude
-129.61775°
Altitude
558.967 km
Speed
7.584 km/s
True Right ascension
10h 01m 45s
True Declination
0° 00' 00"
Sunlit
Object was in daylight at epoch
Visualization orbit readout
Latitude
Unknown
Longitude
Unknown
Altitude
Unknown
Speed
Unknown
Apparent Right ascension
Unknown
Apparent Declination
Unknown
Sunlit
N/A
Visualization observer readout
Local Sidereal Time
02:09:39
Azimuth
Unknown
Elevation
Unknown
Doppler factor
Unknown
Orbital elements
Apogee altitude
561.853 km
Perigee altitude
560.162 km
Semi-major axis
6,939.144 km
Eccentricity
0.00012
Inclination
43.0018°
RAAN
150.4408°
Arg. of periapsis
262.948°
True anomaly
97.13625°
Mean anomaly
97.1224°
Eccentric anomaly
97.12932°
Mean motion
3.75478 °/min
Orbital period
95.88 mins
BSTAR
-0.0000018452
Loading maneuver chart data...
Computing Atmospheric mass density...
Loading historical data...
Loading historical data...
Loading historical data...
Loading historical data...
Loading historical data...
Loading historical data...
Loading historical data...

Documentation

Showing up to 5 results
|